THORAD DELTA 1 DEB, 10392

Orbit data source: Space-Track

THORAD DELTA 1 DEB, 10392 is space debris in SSO originally from a launch on Fri, 15 Nov 1974 UTC launched from the Air Force Western Test Range (AFWTR). Debris objects in space refer to the collection of defunct objects orbiting the Earth. Examples of debris include non-operational satellites, rocket bodies, and fragments generated from explosions, collisions, or faulty payload assembly.

Loading next visibility...
Identifier
10392, 1974-089EH
Orbit
SSO
Country
Flag of USUS
Related business
Manufacturer
Unknown
Mission
Spacecraft
Bus & Motor
Unknown
Mass
Unknown
Launch date (UTC)
1974-11-15 (52 years ago)
Launch vehicle
Unknown
Launch site
Air Force Western Test Range (AFWTR)
Object type
Payload
Rocket body
Debris
Shape & HBR
Unknown shape, 0.1 m
Radar Cross Section
Medium (>0.1 m² and <1 m²)

Expand to show TLE details & history
Last TLE update: 1 day ago

TLE from 1 day ago
0 THORAD DELTA 1 DEB
1 10392U 74089EH  26162.43037330 -.00000030  00000-0  73710-4 0  9999
2 10392 101.2122 203.2139 0049395 280.0923 207.0366 12.60136989374069
Epoch: 2026-06-11T10:19Z
TLE epoch observation values (Epoch: 2026-06-11T10:19:44.253Z)
Latitude
51.78675°
Longitude
-16.98494°
Altitude
1,464.918 km
Speed
7.119 km/s
True Right ascension
02h 30m 53s
True Declination
51° 38' 04"
Sunlit
Object was in daylight at epoch
Visualization orbit readout
Latitude
Unknown
Longitude
Unknown
Altitude
Unknown
Speed
Unknown
Apparent Right ascension
Unknown
Apparent Declination
Unknown
Sunlit
N/A
Visualization observer readout
Local Sidereal Time
07:47:52
Azimuth
Unknown
Elevation
Unknown
Doppler factor
Unknown
Orbital elements
Apogee altitude
1,458.4 km
Perigee altitude
1,381.363 km
Semi-major axis
7,798.019 km
Eccentricity
0.00494
Inclination
101.2122°
RAAN
203.2139°
Arg. of periapsis
280.0923°
True anomaly
206.78072°
Mean anomaly
207.0366°
Eccentric anomaly
206.90852°
Mean motion
3.15186 °/min
Orbital period
114.22 mins
BSTAR
0.00007371
Loading maneuver chart data...
Computing Atmospheric mass density...

Documentation

Showing up to 5 results
|